Regional Weather Roundup
Issued by NWS

Home | Current Version | Previous Version | Graphics & Text | Print | Product List | Glossary On
Versions: 1 2 3 4 5 6 7 8 9 10 11 12 13 14 15 16 17 18 19 20 21 22 23 24 25 26 27 28 29 30 31 32 33 34 35 36 37 38 39 40 41 42 43 44 45 46 47 48 49 50
000
ASUS43 KLMK 211502
RWRKY
KENTUCKY REGIONAL WEATHER ROUNDUP
NATIONAL WEATHER SERVICE LOUISVILLE KY
1100 AM EDT SUN SEP 21 2014

NOTE "FAIR" INDICATES FEW OR NO CLOUDS BELOW 12,000 FEET
WITH NO SIGNIFICANT WEATHER AND/OR OBSTRUCTIONS TO VISIBILITY.

KYZ001>023-026-027-061>063-070>075-211600-
WESTERN AND SOUTH CENTRAL KENTUCKY

CITY           SKY/WX    TMP DP  RH WIND       PRES   REMARKS
PADUCAH        CLOUDY    79  70  74 NW7       29.99R
HENDERSON      MOSUNNY   75  66  73 NW13G20   29.96R
OWENSBORO      CLOUDY    76  69  79 NW14      29.94S
HOPKINSVILLE   PTSUNNY   73  73 100 W13       29.98S
BOWLING GREEN  PTSUNNY   73  67  81 SW8       29.96S
GLASGOW        CLOUDY    72  67  82 W9        29.95F
$$

KYZ024-025-028>034-038-045-046-053-211600-
NORTH CENTRAL KENTUCKY

CITY           SKY/WX    TMP DP  RH WIND       PRES   REMARKS
LOUISVILLE/SDF PTSUNNY   78  67  68 W16       29.90R
LOUISVILLE/LOU CLOUDY    76  67  73 W10G17    29.90S
FORT KNOX      PTSUNNY   76  68  76 W13       29.91S
$$

KYZ035>037-039>044-047>052-055>060-089>105-211600-
NORTHEAST KENTUCKY

CITY           SKY/WX    TMP DP  RH WIND       PRES   REMARKS
LEXINGTON      CLOUDY    75  67  76 W15G23    29.91S
COVINGTON      PTSUNNY   75  64  68 W20       29.86R
FRANKFORT      PTSUNNY   76  67  73 W9        29.89S
$$

KYZ054-064>069-076>088-106>120-211600-
SOUTHEAST KENTUCKY

CITY           SKY/WX    TMP DP  RH WIND       PRES   REMARKS
JACKSON        CLOUDY    71  65  81 VRB3      29.95R
LONDON         PTSUNNY   72  63  73 W9        29.98R
SOMERSET       CLOUDY    73  64  73 W9        29.98R
MIDDLESBORO    CLOUDY    70  64  82 SE6       30.00R
MONTICELLO     CLOUDY    75  67  76 SW8       29.99R
$$




USA.gov is the U.S. government's official web portal to all federal, state and local government web resources and services.